RH
82 77 75 76 74 74 77 82 90 74 71 86 96 87 54 42 35 33 38 41 42 40 37 37 41 45 43 45 42 46 54 73 53 44 45 50 45 49 48 69 69 70 53 37
81 80 79 78 73 72 79 84 78 71 66 91 90 62 49 39 35 35 38 42 38 38 39 42 43 43 43 40 44 50 52 65 68 29 46 60 66 78 81 80 66 65 79 40
82 82 84 77 71 75 78 86 93 87 84 78 63 56 50 50 42 39 39 42 40 42 43 46 50 45 45 40 40 52 48 60 70 47 46 65 81 81 84 80 85 69 60 40
82 83 82 77 76 76 71 88 86 74 93 98 63 57 53 50 46 40 36 39 40 43 53 48 50 50 48 45 60 54 51 77 74 68 45 44 44 60 62 82 69 67 36 44
84 84 82 81 78 72 78 97 95 84 78 77 64 65 55 51 43 43 41 47 45 46 59 53 69 52 48 47 46 53 57 61 60 74 46 48 52 44 47 49 45 51 47 46
84 84 83 81 78 74 87 86 76 79 84 76 74 72 58 50 46 48 42 47 53 52 46 48 48 49 52 50 49 49 57 72 70 64 52 55 69 50 42 40 42 53 70 52
83 84 84 81 78 73 78 80 75 94 92 80 73 59 53 52 47 54 47 49 51 48 50 50 48 48 52 53 49 49 63 62 72 73 62 54 25 32 38 50 56 54 53 54
84 86 83 80 80 76 81 88 77 97 94 76 66 60 63 58 60 62 60 60 56 54 53 71 76 74 72 65 56 56 52 61 80 78 70 40 29 40 40 47 34 40 48 46
85 85 82 81 81 78 86 92 81 91 95 85 60 61 55 72 76 69 67 60 60 60 81 85 73 64 67 67 76 61 56 52 62 87 79 64 39 40 46 40 47 37 43 45
84 84 83 81 79 78 82 95 83 81 97 74 67 74 70 65 74 86 72 64 64 61 89 88 77 66 52 55 77 89 78 81 87 86 80 56 38 35 38 53 69 41 48 45
84 84 84 83 82 76 80 95 89 74 96 80 73 64 72 74 80 89 79 82 82 91 89 87 85 75 64 67 54 63 73 84 92 85 92 83 37 40 45 40 44 42 44 46
84 85 85 82 82 79 81 95 92 91 96 89 88 81 76 65 60 84 85 72 70 86 93 87 83 82 84 66 62 53 69 58 73 69 62 43 43 45 42 45 47 45 43 38
85 85 86 83 80 78 80 91 94 86 98 83 75 73 69 69 69 64 92 85 67 64 64 87 82 72 69 81 73 59 52 55 70 65 45 46 46 42 44 39 41 39 39 40
86 86 88 86 84 79 79 86 90 89 93 93 77 61 72 68 70 69 70 74 75 72 74 90 89 79 62 63 53 57 42 48 45 46 42 41 38 39 39 36 35 39 39 40
86 87 88 85 82 82 86 91 95 85 84 90 86 69 64 66 74 76 74 75 80 93 95 94 86 71 70 69 75 72 49 48 52 50 41 46 43 40 40 44 44 43 44 43
86 89 86 83 79 71 79 100 79 86 86 92 89 70 70 79 81 82 81 79 86 93 93 92 82 73 75 86 79 57 53 52 53 52 44 47 48 46 42 46 48 45 45 46
89 90 86 77 81 90 95 87 80 82 83 93 83 76 66 73 77 86 95 86 94 89 92 93 80 76 82 89 80 49 55 57 61 60 64 69 56 58 48 48 44 46 44 44
90 85 84 82 79 79 91 87 80 77 88 88 88 82 79 66 88 95 87 96 94 96 90 90 84 78 86 89 66 73 73 71 72 69 71 73 69 64 56 49 46 48 48 45
83 78 70 73 85 94 92 75 76 86 87 97 89 76 93 73 94 90 91 90 97 89 96 90 84 84 90 73 78 73 79 89 91 85 83 83 86 85 83 69 58 55 52 50
68 69 84 96 89 77 77 82 91 93 95 93 88 82 85 79 84 94 93 94 94 92 76 83 92 70 67 74 76 78 78 78 90 96 91 94 94 94 94 79 62 60 59 64
79 96 98 93 77 84 87 93 88 84 82 80 81 76 70 69 82 89 88 92 88 93 72 85 85 78 80 75 80 74 71 72 74 66 66 72 85 91 95 95 98 96 91 87
86 89 89 85 84 88 86 91 84 74 74 82 75 79 78 74 71 82 93 92 87 82 79 91 87 77 76 73 76 74 69 70 69 64 60 68 68 71 75 76 79 87 94 99
76 83 80 82 88 92 75 98 90 92 83 85 86 94 85 83 76 85 82 91 88 77 94 83 77 76 71 74 76 74 69 74 76 72 67 68 68 68 71 76 75 80 78 75
80 78 97 84 93 80 73 71 80 92 86 88 92 97 94 94 85 80 90 68 80 96 95 80 83 78 78 77 76 80 84 83 80 70 64 66 69 70 72 81 85 88 88 86
84 71 94 88 79 84 90 90 86 88 82 82 90 92 92 90 89 86 86 95 92 82 87 91 90 81 77 81 78 81 90 89 84 74 83 86 87 84 84 81 82 80 89 91
79 77 88 82 82 88 88 83 86 84 84 85 84 90 90 86 87 94 96 85 91 91 91 94 93 91 90 84 77 78 78 74 72 69 73 79 84 86 86 85 85 86 88 89
70 92 80 84 74 82 83 80 78 85 76 83 79 82 71 82 92 86 84 90 92 78 80 78 78 89 88 82 79 76 74 70 71 71 78 82 84 89 90 90 83 84 85 87
Wind_Speed
18 16 13 10 8 7 6 4 4 3 2 6 1 4 5 4 4 2 3 5 4 5 4 3 3 5 2 5 6 3 2 3 2 1 2 0 1 3 4 2 4 2 2 6
18 16 13 10 8 8 4 4 2 2 2 5 2 1 3 3 4 3 3 3 2 2 5 5 4 3 2 6 5 6 7 2 1 2 2 1 3 2 4 4 2 7 5 5
18 15 14 11 8 8 4 4 4 4 4 1 7 6 4 4 4 3 5 5 4 4 3 3 5 4 2 3 3 7 6 4 5 4 2 4 4 5 4 4 5 4 12 11
18 15 14 12 9 8 4 3 2 2 4 2 4 4 4 5 4 2 2 2 4 6 5 3 4 3 4 4 8 4 3 4 3 5 7 6 8 7 13 10 10 10 7 12
18 15 14 12 10 9 4 5 5 2 2 3 6 2 3 5 4 5 3 5 7 5 5 5 8 7 4 4 3 5 2 1 2 4 6 9 15 17 16 19 20 19 18 22
17 16 13 12 10 4 3 1 2 4 2 2 4 5 6 8 8 4 3 9 6 5 4 4 3 3 5 7 9 8 5 4 2 4 3 6 11 17 18 17 14 18 15 16
17 15 13 11 9 4 3 2 3 4 2 1 3 6 4 12 3 8 2 5 5 3 8 7 7 7 5 4 3 4 7 6 3 3 1 4 2 2 6 15 11 18 13 10
17 15 13 10 8 7 3 2 3 4 4 1 3 7 7 9 7 5 5 5 3 8 5 4 4 3 3 2 2 6 4 5 2 3 3 10 5 2 7 6 10 18 18 16
17 15 13 10 9 11 4 2 1 4 7 4 1 5 7 6 5 3 4 3 3 6 4 3 3 3 2 1 4 4 5 2 5 3 3 5 1 2 1 3 10 7 9 11
17 15 13 10 9 8 4 3 2 4 5 1 1 3 5 5 5 5 4 4 3 3 3 2 3 2 1 3 5 5 5 3 10 4 5 9 9 8 1 4 5 2 3 6
17 15 13 11 11 8 4 2 2 4 4 1 2 2 4 3 3 6 6 4 1 2 3 3 3 3 3 2 4 6 9 8 5 5 4 10 5 2 7 1 2 4 5 7
17 15 13 11 10 9 4 4 2 3 6 3 1 2 3 3 4 7 2 2 4 5 5 2 3 3 2 3 3 4 5 5 6 12 8 4 3 5 5 6 6 5 9 13
17 15 14 12 9 7 6 3 2 4 4 3 3 4 5 2 4 2 6 1 4 3 2 5 2 3 4 5 7 2 3 4 4 2 7 15 13 12 11 12 12 10 12 14
17 16 15 12 11 10 7 4 1 4 3 5 1 2 4 3 3 5 3 8 5 6 2 3 3 2 4 3 3 3 2 2 5 11 13 13 10 7 9 15 16 13 14 14
18 17 16 14 15 17 10 5 3 1 3 4 3 1 5 4 4 8 7 8 5 2 2 2 2 2 2 1 2 5 6 7 3 6 10 11 16 17 18 17 20 19 18 20
18 19 17 16 15 7 4 4 3 3 2 5 4 1 4 5 8 10 7 4 4 2 2 2 2 1 3 2 3 6 5 4 6 9 14 19 19 19 23 20 21 20 18 17
20 19 17 14 14 7 4 2 1 2 3 4 4 3 3 3 4 3 3 4 2 1 2 1 2 2 4 2 4 1 6 10 14 14 13 14 15 15 18 19 21 20 19 18
22 20 18 20 19 9 5 5 5 3 5 4 4 2 2 2 2 3 2 2 1 2 1 2 2 2 2 6 3 7 9 13 12 13 14 15 16 19 20 19 17 18 17 16
24 21 15 5 6 3 2 5 10 4 4 4 2 3 3 2 2 2 2 1 2 1 1 2 4 3 6 1 5 9 9 8 11 13 14 15 17 18 20 19 17 14 15 14
19 7 5 3 2 5 4 5 5 6 4 3 3 0 3 1 1 2 2 2 1 1 1 3 3 4 4 3 4 4 7 8 9 6 13 13 16 19 20 19 15 13 13 13
4 3 3 0 3 3 4 3 3 2 3 2 2 1 3 1 2 2 1 3 2 1 1 3 3 4 4 4 3 2 5 4 3 2 3 6 9 11 13 15 13 11 11 10
5 8 6 2 3 4 5 3 1 2 2 2 2 2 1 2 1 2 2 2 2 4 5 2 3 2 5 4 2 5 7 9 11 12 12 11 11 11 10 10 12 10 7 5
3 5 5 3 2 6 4 4 2 3 3 3 2 3 1 1 2 3 2 2 3 3 2 3 0 3 3 2 4 7 9 10 11 14 14 13 13 13 10 11 10 9 9 8
4 4 5 3 1 2 1 3 4 2 3 3 2 3 2 1 2 2 2 2 2 2 3 2 1 4 4 5 5 7 9 10 10 12 13 13 13 13 13 9 8 9 11 10
4 4 4 2 2 3 3 3 4 3 3 3 3 3 2 2 1 1 1 3 4 3 1 1 4 7 7 7 7 7 6 7 8 9 10 11 11 11 13 11 10 12 11 10
3 4 4 3 6 3 3 4 4 2 2 2 2 3 2 1 2 3 5 3 1 2 2 2 3 5 7 8 9 9 8 8 8 8 10 11 10 11 13 13 11 11 11 12
4 3 4 3 5 4 3 2 1 0 2 2 2 3 3 1 1 3 1 1 3 1 3 4 7 9 11 12 13 14 12 8 7 9 10 11 11 10 10 12 13 11 12 11
Wind_Direction
157 160 162 157 152 140 78 101 86 311 359 66 64 153 155 137 139 83 102 100 106 134 137 126 141 169 148 151 142 99 75 115 128 95 310 266 88 142 146 151 177 218 296 271
158 159 162 160 160 170 124 96 120 326 83 133 122 208 90 93 135 147 121 107 108 119 135 123 126 135 348 150 142 160 171 83 42 177 140 59 218 143 102 100 104 204 182 248
157 161 156 157 155 161 94 109 97 341 49 1 135 139 143 110 32 75 85 116 95 113 99 38 140 137 129 148 140 136 122 157 189 222 187 132 197 194 197 148 184 196 226 272
158 161 156 156 151 155 98 43 181 198 180 235 137 102 120 122 128 88 124 86 157 139 122 110 135 138 129 70 115 86 149 210 186 259 247 215 243 209 191 205 196 214 251 246
157 160 157 157 152 141 85 131 136 51 82 113 114 105 153 131 128 142 179 140 153 126 146 177 179 139 173 175 143 149 150 110 129 275 281 245 258 251 229 225 230 237 253 270
156 156 157 159 157 128 114 149 74 99 321 130 118 184 156 165 132 24 148 137 115 123 161 133 101 90 121 156 162 171 151 140 133 254 327 305 270 247 227 228 225 214 225 233
156 155 155 157 154 134 121 161 115 97 138 172 160 150 116 146 137 129 94 99 102 156 113 100 69 56 70 137 166 116 142 145 168 273 288 223 252 226 233 230 231 217 239 241
148 150 152 151 152 145 98 133 117 116 109 148 109 124 106 91 66 76 80 32 2 138 70 78 55 356 33 325 207 195 188 144 179 253 221 303 278 204 190 196 263 222 232 250
146 148 149 139 149 136 95 80 74 102 119 230 88 108 133 127 109 76 73 55 37 62 72 77 142 207 187 148 110 54 165 209 204 160 223 251 212 121 159 188 281 225 221 249
146 143 143 136 140 131 108 85 58 89 103 274 43 128 150 114 99 94 128 157 79 36 98 113 166 200 178 209 167 177 150 192 218 212 266 275 264 242 99 243 258 331 205 245
142 142 138 124 123 125 90 106 38 106 96 32 12 63 134 98 105 139 164 97 34 66 96 159 180 177 199 230 170 187 178 172 180 165 225 264 227 197 218 168 242 268 282 278
141 138 132 121 113 110 97 88 45 43 79 120 3 52 39 37 136 123 24 99 155 159 102 172 133 163 181 197 253 185 224 201 179 193 217 265 266 278 248 303 285 282 300 304
139 136 131 121 108 102 108 110 60 64 94 39 62 35 1 43 57 111 118 252 150 150 91 144 134 185 160 192 232 229 192 170 232 160 238 257 273 275 273 284 284 289 291 293
136 132 129 119 116 98 87 85 54 79 112 107 83 330 37 343 35 59 64 118 92 98 96 106 142 175 200 222 300 231 243 201 236 270 283 286 281 279 289 292 287 281 277 272
134 129 124 114 108 97 81 74 39 43 135 127 108 90 12 1 67 85 87 103 104 105 102 112 166 120 186 178 287 243 207 237 221 264 294 283 289 296 290 286 285 286 283 284
131 130 125 120 108 88 66 58 1 349 58 97 106 300 24 47 67 68 64 55 70 75 126 162 169 129 178 222 250 261 251 295 302 296 303 299 288 285 284 282 282 283 280 273
129 126 116 102 77 60 73 122 169 23 61 82 103 90 35 75 80 50 44 28 53 70 107 185 162 186 169 225 240 153 356 338 321 312 317 301 307 296 295 290 285 284 279 275
119 113 108 103 104 103 48 357 32 66 86 60 102 92 112 28 82 97 3 94 44 36 111 139 182 137 214 250 286 352 347 334 316 321 320 307 304 302 299 295 290 287 283 282
120 116 110 75 40 61 120 138 65 54 88 101 75 122 144 54 88 94 89 55 138 8 253 193 166 173 224 238 339 341 348 328 312 316 326 347 344 334 321 312 302 291 286 293
115 62 58 61 355 132 141 13 30 24 359 41 81 52 105 85 114 98 107 39 127 210 207 131 223 252 141 105 61 4 346 345 353 345 360 352 353 353 351 348 330 316 304 306
55 81 72 93 167 59 40 56 51 12 59 37 83 77 117 15 124 130 73 148 156 257 139 190 216 255 170 143 144 311 323 353 37 22 339 4 354 348 348 349 348 360 12 19
144 110 96 82 47 50 77 60 91 53 109 148 113 110 110 98 74 107 151 160 163 244 140 203 234 180 157 166 252 317 317 320 318 322 330 336 336 340 344 344 335 331 330 327
66 66 75 66 35 64 120 146 124 122 156 154 147 105 94 105 65 76 108 143 233 122 211 238 322 170 212 272 296 294 302 306 313 315 319 324 324 325 328 322 322 310 305 301
68 96 75 91 58 99 127 113 120 113 103 106 92 92 97 93 108 116 139 223 150 246 219 254 157 27 356 320 295 296 303 311 313 312 316 319 322 318 317 314 306 311 303 296
78 66 82 89 116 62 80 86 88 60 87 102 103 84 99 88 106 231 237 238 226 222 332 68 9 348 345 330 322 302 287 292 300 309 306 300 303 308 306 312 313 309 295 285
63 68 83 95 90 45 62 90 84 34 93 119 60 93 84 180 193 202 219 248 108 70 358 313 317 325 304 295 292 289 286 282 291 304 304 302 300 297 298 301 304 303 298 293
62 46 50 90 104 115 95 91 116 234 79 90 93 101 158 63 275 241 214 164 125 306 285 272 269 265 268 265 268 270 273 277 294 309 306 302 302 297 297 301 306 300 298 294